Time,TemperatureF,DewpointF,PressureIn,WindDirection,WindDirectionDegrees,WindSpeedMPH,WindSpeedGustMPH,Humidity,HourlyPrecipIn,Conditions,Clouds,dailyrainin,SoftwareType,DateUTC
2013-10-18 00:01:00,66.2,63.5,29.74,SW,217,1.0,8.0,91,0.00,,,0.02,meteohub,2013-10-18 04:01:00,
2013-10-18 00:06:00,66.4,63.7,29.74,ESE,104,0.0,8.0,91,0.00,,,0.00,meteohub,2013-10-18 04:06:00,
2013-10-18 00:11:00,66.6,63.9,29.74,SSW,198,1.0,8.0,91,0.00,,,0.00,meteohub,2013-10-18 04:11:00,
2013-10-18 00:16:00,66.6,63.9,29.73,WNW,302,0.0,8.0,91,0.00,,,0.00,meteohub,2013-10-18 04:16:00,
2013-10-18 00:21:00,66.6,63.9,29.74,SW,231,0.0,8.0,91,0.00,,,0.00,meteohub,2013-10-18 04:21:00,
2013-10-18 00:26:00,66.6,63.9,29.73,SSE,150,1.0,8.0,91,0.00,,,0.00,meteohub,2013-10-18 04:26:00,
2013-10-18 00:31:00,66.7,64.0,29.73,WSW,243,1.0,8.0,91,0.00,,,0.00,meteohub,2013-10-18 04:31:00,
2013-10-18 00:36:00,66.7,64.0,29.73,West,271,1.0,8.0,91,0.00,,,0.00,meteohub,2013-10-18 04:36:00,
2013-10-18 00:41:00,66.7,64.0,29.73,WNW,293,2.0,6.0,91,0.00,,,0.00,meteohub,2013-10-18 04:41:00,
2013-10-18 00:46:00,66.7,64.0,29.73,SW,226,0.0,6.0,91,0.00,,,0.00,meteohub,2013-10-18 04:46:00,
2013-10-18 00:51:00,66.7,64.0,29.73,SW,228,0.0,8.0,91,0.00,,,0.00,meteohub,2013-10-18 04:51:00,
2013-10-18 00:56:00,66.7,64.0,29.73,WNW,290,4.0,8.0,91,0.00,,,0.00,meteohub,2013-10-18 04:56:00,
2013-10-18 01:01:00,66.9,63.9,29.73,WNW,285,2.0,10.0,90,0.00,,,0.00,meteohub,2013-10-18 05:01:00,
2013-10-18 01:06:00,66.9,63.9,29.73,WSW,239,2.0,13.0,90,0.00,,,0.00,meteohub,2013-10-18 05:06:00,
2013-10-18 01:12:00,67.3,63.9,29.73,West,278,3.0,13.0,89,0.00,,,0.00,meteohub,2013-10-18 05:12:00,
2013-10-18 01:17:00,67.1,63.5,29.74,NNW,336,6.0,13.0,88,0.00,,,0.00,meteohub,2013-10-18 05:17:00,
2013-10-18 01:22:00,66.9,63.3,29.74,West,277,2.0,13.0,88,0.00,,,0.00,meteohub,2013-10-18 05:22:00,
2013-10-18 01:27:00,66.9,63.0,29.74,NW,311,7.0,13.0,87,0.00,,,0.00,meteohub,2013-10-18 05:27:00,
2013-10-18 01:32:00,66.9,62.6,29.74,WNW,296,3.0,13.0,86,0.00,,,0.00,meteohub,2013-10-18 05:32:00,
2013-10-18 01:37:00,66.7,62.1,29.75,NW,319,7.0,11.0,85,0.00,,,0.00,meteohub,2013-10-18 05:37:00,
2013-10-18 01:42:00,66.6,61.0,29.75,NNW,332,3.0,13.0,82,0.00,,,0.00,meteohub,2013-10-18 05:42:00,
2013-10-18 01:47:00,66.6,60.3,29.75,NW,316,6.0,13.0,80,0.00,,,0.00,meteohub,2013-10-18 05:47:00,
2013-10-18 01:52:00,66.4,59.7,29.75,NW,316,4.0,17.0,79,0.00,,,0.00,meteohub,2013-10-18 05:52:00,
2013-10-18 01:57:00,66.4,59.4,29.75,NNW,337,8.0,22.0,78,0.00,,,0.00,meteohub,2013-10-18 05:57:00,
2013-10-18 02:02:00,66.0,58.3,29.76,WNW,298,5.0,22.0,76,0.00,,,0.00,meteohub,2013-10-18 06:02:00,
2013-10-18 02:07:00,65.8,58.1,29.76,WNW,302,4.0,22.0,76,0.00,,,0.00,meteohub,2013-10-18 06:07:00,
2013-10-18 02:12:00,65.5,57.7,29.76,NW,321,4.0,18.0,76,0.00,,,0.00,meteohub,2013-10-18 06:12:00,
2013-10-18 02:17:00,65.3,57.6,29.76,WNW,302,9.0,14.0,76,0.00,,,0.00,meteohub,2013-10-18 06:17:00,
2013-10-18 02:22:00,65.1,57.4,29.76,WNW,298,7.0,14.0,76,0.00,,,0.00,meteohub,2013-10-18 06:22:00,
2013-10-18 02:27:00,64.9,57.2,29.76,WNW,294,13.0,14.0,76,0.00,,,0.00,meteohub,2013-10-18 06:27:00,
2013-10-18 02:32:00,64.9,56.8,29.77,WNW,297,15.0,16.0,75,0.00,,,0.00,meteohub,2013-10-18 06:32:00,
2013-10-18 02:37:00,64.8,56.3,29.76,NW,308,11.0,22.0,74,0.00,,,0.00,meteohub,2013-10-18 06:37:00,
2013-10-18 02:42:00,64.6,56.5,29.77,West,269,5.0,22.0,75,0.00,,,0.00,meteohub,2013-10-18 06:42:00,
2013-10-18 02:47:00,64.2,56.5,29.77,West,281,5.0,22.0,76,0.00,,,0.00,meteohub,2013-10-18 06:47:00,
2013-10-18 02:52:00,64.0,56.3,29.77,NNW,332,2.0,18.0,76,0.00,,,0.00,meteohub,2013-10-18 06:52:00,
2013-10-18 02:57:00,63.9,56.5,29.77,WNW,301,4.0,14.0,77,0.00,,,0.00,meteohub,2013-10-18 06:57:00,
2013-10-18 03:02:00,63.7,56.3,29.77,WNW,295,6.0,14.0,77,0.00,,,0.00,meteohub,2013-10-18 07:02:00,
2013-10-18 03:07:00,63.5,55.4,29.77,NW,304,5.0,14.0,75,0.00,,,0.00,meteohub,2013-10-18 07:07:00,
2013-10-18 03:12:00,63.3,54.5,29.78,WNW,290,12.0,24.0,73,0.00,,,0.00,meteohub,2013-10-18 07:12:00,
2013-10-18 03:17:00,63.1,54.0,29.78,WNW,298,8.0,24.0,72,0.00,,,0.00,meteohub,2013-10-18 07:17:00,
2013-10-18 03:22:00,63.0,53.4,29.78,NW,325,9.0,24.0,71,0.00,,,0.00,meteohub,2013-10-18 07:22:00,
2013-10-18 03:27:00,62.8,52.9,29.78,WNW,291,7.0,19.0,70,0.00,,,0.00,meteohub,2013-10-18 07:27:00,
2013-10-18 03:32:00,62.6,52.3,29.78,NW,315,8.0,19.0,69,0.00,,,0.00,meteohub,2013-10-18 07:32:00,
2013-10-18 03:37:00,62.4,52.2,29.79,NNW,336,7.0,19.0,69,0.00,,,0.00,meteohub,2013-10-18 07:37:00,
2013-10-18 03:42:00,62.2,51.6,29.79,WNW,293,10.0,18.0,68,0.00,,,0.00,meteohub,2013-10-18 07:42:00,
2013-10-18 03:46:00,62.1,51.8,29.79,WNW,301,5.0,18.0,69,0.00,,,0.00,meteohub,2013-10-18 07:46:00,
2013-10-18 03:52:00,61.9,51.6,29.79,NW,309,11.0,18.0,69,0.00,,,0.00,meteohub,2013-10-18 07:52:00,
2013-10-18 03:57:00,61.5,51.3,29.80,West,279,10.0,16.0,69,0.00,,,0.00,meteohub,2013-10-18 07:57:00,
2013-10-18 04:02:00,61.3,51.1,29.80,NW,314,6.0,15.0,69,0.00,,,0.00,meteohub,2013-10-18 08:02:00,
2013-10-18 04:07:00,61.2,51.3,29.81,NW,315,4.0,15.0,70,0.00,,,0.00,meteohub,2013-10-18 08:07:00,
2013-10-18 04:12:00,61.0,51.4,29.80,West,277,5.0,18.0,71,0.00,,,0.00,meteohub,2013-10-18 08:12:00,
2013-10-18 04:17:00,60.8,51.8,29.81,WNW,300,7.0,18.0,72,0.00,,,0.00,meteohub,2013-10-18 08:17:00,
2013-10-18 04:22:00,60.6,51.6,29.81,WNW,302,7.0,18.0,72,0.00,,,0.00,meteohub,2013-10-18 08:22:00,
2013-10-18 04:27:00,60.4,51.8,29.81,NW,314,1.0,14.0,73,0.00,,,0.00,meteohub,2013-10-18 08:27:00,
2013-10-18 04:32:00,60.3,51.6,29.81,NW,316,5.0,14.0,73,0.00,,,0.00,meteohub,2013-10-18 08:32:00,
2013-10-18 04:37:00,60.1,51.4,29.81,WNW,298,3.0,14.0,73,0.00,,,0.00,meteohub,2013-10-18 08:37:00,
2013-10-18 04:42:00,59.9,51.3,29.82,WNW,287,9.0,13.0,73,0.00,,,0.00,meteohub,2013-10-18 08:42:00,
2013-10-18 04:47:00,59.7,51.1,29.82,NW,305,4.0,13.0,73,0.00,,,0.00,meteohub,2013-10-18 08:47:00,
2013-10-18 04:52:00,59.5,50.9,29.82,WNW,298,5.0,12.0,73,0.00,,,0.00,meteohub,2013-10-18 08:52:00,
2013-10-18 04:57:00,59.5,50.9,29.82,WNW,301,6.0,12.0,73,0.00,,,0.00,meteohub,2013-10-18 08:57:00,
2013-10-18 05:02:00,59.4,50.7,29.83,WNW,297,5.0,10.0,73,0.00,,,0.00,meteohub,2013-10-18 09:02:00,
2013-10-18 05:07:00,59.2,50.5,29.83,West,273,3.0,10.0,73,0.00,,,0.00,meteohub,2013-10-18 09:07:00,
2013-10-18 05:12:00,58.8,50.2,29.83,WNW,295,5.0,10.0,73,0.00,,,0.00,meteohub,2013-10-18 09:12:00,
2013-10-18 05:17:00,58.6,50.0,29.83,WNW,297,3.0,10.0,73,0.00,,,0.00,meteohub,2013-10-18 09:17:00,
2013-10-18 05:22:00,58.5,49.8,29.83,West,281,2.0,10.0,73,0.00,,,0.00,meteohub,2013-10-18 09:22:00,
2013-10-18 05:27:00,58.3,49.6,29.84,NW,320,3.0,10.0,73,0.00,,,0.00,meteohub,2013-10-18 09:27:00,
2013-10-18 05:32:00,58.1,49.5,29.84,WNW,302,1.0,10.0,73,0.00,,,0.00,meteohub,2013-10-18 09:32:00,
2013-10-18 05:37:00,57.7,49.1,29.84,WNW,288,1.0,7.0,73,0.00,,,0.00,meteohub,2013-10-18 09:37:00,
2013-10-18 05:42:00,57.6,48.6,29.84,WNW,296,4.0,7.0,72,0.00,,,0.00,meteohub,2013-10-18 09:42:00,
2013-10-18 05:47:00,57.4,48.4,29.85,NW,319,1.0,6.0,72,0.00,,,0.00,meteohub,2013-10-18 09:47:00,
2013-10-18 05:52:00,57.2,48.2,29.85,WNW,291,3.0,8.0,72,0.00,,,0.00,meteohub,2013-10-18 09:52:00,
2013-10-18 05:57:00,57.0,48.0,29.85,WNW,283,5.0,8.0,72,0.00,,,0.00,meteohub,2013-10-18 09:57:00,
2013-10-18 06:02:00,57.0,48.0,29.85,WSW,257,1.0,8.0,72,0.00,,,0.00,meteohub,2013-10-18 10:02:00,
2013-10-18 06:07:00,56.8,47.8,29.86,West,281,2.0,8.0,72,0.00,,,0.00,meteohub,2013-10-18 10:07:00,
2013-10-18 06:12:00,56.7,48.0,29.86,WNW,287,2.0,7.0,73,0.00,,,0.00,meteohub,2013-10-18 10:12:00,
2013-10-18 06:17:00,56.5,47.5,29.86,NW,319,1.0,9.0,72,0.00,,,0.00,meteohub,2013-10-18 10:17:00,
2013-10-18 06:22:00,56.5,48.0,29.86,WNW,296,3.0,9.0,73,0.00,,,0.00,meteohub,2013-10-18 10:22:00,
2013-10-18 06:27:00,56.3,47.8,29.86,NW,308,2.0,9.0,73,0.00,,,0.00,meteohub,2013-10-18 10:27:00,
2013-10-18 06:32:00,56.1,47.7,29.86,WNW,302,6.0,9.0,73,0.00,,,0.00,meteohub,2013-10-18 10:32:00,
2013-10-18 06:37:00,56.1,47.7,29.87,NW,319,3.0,10.0,73,0.00,,,0.00,meteohub,2013-10-18 10:37:00,
2013-10-18 06:42:00,55.9,47.5,29.87,NW,308,2.0,10.0,73,0.00,,,0.00,meteohub,2013-10-18 10:42:00,
2013-10-18 06:47:00,55.8,47.3,29.87,NW,307,3.0,10.0,73,0.00,,,0.00,meteohub,2013-10-18 10:47:00,
2013-10-18 06:52:00,55.9,47.5,29.87,West,274,4.0,12.0,73,0.00,,,0.00,meteohub,2013-10-18 10:52:00,
2013-10-18 06:57:00,55.8,47.3,29.87,WNW,297,5.0,12.0,73,0.00,,,0.00,meteohub,2013-10-18 10:57:00,
2013-10-18 07:02:00,55.4,47.3,29.87,NW,317,1.0,12.0,74,0.00,,,0.00,meteohub,2013-10-18 11:02:00,
2013-10-18 07:07:00,55.4,47.3,29.87,NNW,336,1.0,12.0,74,0.00,,,0.00,meteohub,2013-10-18 11:07:00,
2013-10-18 07:12:00,55.2,47.1,29.87,WSW,249,5.0,12.0,74,0.00,,,0.00,meteohub,2013-10-18 11:12:00,
2013-10-18 07:17:00,55.0,46.9,29.88,WNW,293,3.0,12.0,74,0.00,,,0.00,meteohub,2013-10-18 11:17:00,
2013-10-18 07:22:00,55.0,47.3,29.88,WSW,239,2.0,8.0,75,0.00,,,0.00,meteohub,2013-10-18 11:22:00,
2013-10-18 07:27:00,55.2,47.1,29.88,WNW,302,5.0,10.0,74,0.00,,,0.00,meteohub,2013-10-18 11:27:00,
2013-10-18 07:32:00,55.2,47.5,29.89,NW,311,3.0,10.0,75,0.00,,,0.00,meteohub,2013-10-18 11:32:00,
2013-10-18 07:37:00,55.0,47.3,29.89,WNW,294,6.0,10.0,75,0.00,,,0.00,meteohub,2013-10-18 11:37:00,
2013-10-18 07:42:00,55.0,47.3,29.89,NW,319,1.0,9.0,75,0.00,,,0.00,meteohub,2013-10-18 11:42:00,
2013-10-18 07:47:00,55.2,47.5,29.89,WNW,302,7.0,13.0,75,0.00,,,0.00,meteohub,2013-10-18 11:47:00,
2013-10-18 07:52:00,55.2,47.5,29.89,WNW,288,5.0,13.0,75,0.00,,,0.00,meteohub,2013-10-18 11:52:00,
2013-10-18 07:57:00,55.4,47.7,29.90,West,281,3.0,13.0,75,0.00,,,0.00,meteohub,2013-10-18 11:57:00,
2013-10-18 08:02:00,55.6,47.8,29.90,WNW,302,3.0,10.0,75,0.00,,,0.00,meteohub,2013-10-18 12:02:00,
2013-10-18 08:07:00,55.8,47.7,29.91,WNW,287,2.0,10.0,74,0.00,,,0.00,meteohub,2013-10-18 12:07:00,
2013-10-18 08:12:00,55.8,47.7,29.91,West,262,4.0,11.0,74,0.00,,,0.00,meteohub,2013-10-18 12:12:00,
2013-10-18 08:17:00,55.9,47.8,29.91,NW,316,1.0,11.0,74,0.00,,,0.00,meteohub,2013-10-18 12:17:00,
2013-10-18 08:22:00,55.9,47.8,29.91,WNW,297,5.0,11.0,74,0.00,,,0.00,meteohub,2013-10-18 12:22:00,
2013-10-18 08:27:00,56.1,47.7,29.92,NW,320,1.0,10.0,73,0.00,,,0.00,meteohub,2013-10-18 12:27:00,
2013-10-18 08:32:00,56.1,47.7,29.92,NW,324,1.0,10.0,73,0.00,,,0.00,meteohub,2013-10-18 12:32:00,
2013-10-18 08:37:00,56.5,48.0,29.92,NW,320,2.0,10.0,73,0.00,,,0.00,meteohub,2013-10-18 12:37:00,
2013-10-18 08:42:00,56.7,47.7,29.92,WNW,302,6.0,8.0,72,0.00,,,0.00,meteohub,2013-10-18 12:42:00,
2013-10-18 08:47:00,56.7,47.7,29.93,NW,308,2.0,13.0,72,0.00,,,0.00,meteohub,2013-10-18 12:47:00,
2013-10-18 08:52:00,56.8,47.5,29.93,WNW,287,8.0,13.0,71,0.00,,,0.00,meteohub,2013-10-18 12:52:00,
2013-10-18 08:57:00,56.8,47.1,29.93,West,277,9.0,15.0,70,0.00,,,0.00,meteohub,2013-10-18 12:57:00,
2013-10-18 09:02:00,57.0,47.3,29.93,WNW,298,6.0,18.0,70,0.00,,,0.00,meteohub,2013-10-18 13:02:00,
2013-10-18 09:07:00,57.2,47.5,29.93,WNW,302,4.0,18.0,70,0.00,,,0.00,meteohub,2013-10-18 13:07:00,
2013-10-18 09:12:00,57.4,47.3,29.93,West,264,6.0,18.0,69,0.00,,,0.00,meteohub,2013-10-18 13:12:00,
2013-10-18 09:18:00,57.6,47.5,29.93,NW,307,4.0,17.0,69,0.00,,,0.00,meteohub,2013-10-18 13:18:00,
2013-10-18 09:23:00,57.7,47.7,29.93,NW,320,5.0,17.0,69,0.00,,,0.00,meteohub,2013-10-18 13:23:00,
2013-10-18 09:28:00,57.9,47.5,29.93,WNW,300,6.0,17.0,68,0.00,,,0.00,meteohub,2013-10-18 13:28:00,
2013-10-18 09:33:00,57.9,47.5,29.93,WNW,302,5.0,13.0,68,0.00,,,0.00,meteohub,2013-10-18 13:33:00,
2013-10-18 09:38:00,58.3,47.3,29.93,NW,314,4.0,13.0,67,0.00,,,0.00,meteohub,2013-10-18 13:38:00,
2013-10-18 09:43:00,58.5,47.5,29.94,WNW,300,7.0,13.0,67,0.00,,,0.00,meteohub,2013-10-18 13:43:00,
2013-10-18 09:48:00,58.8,47.5,29.94,NW,318,6.0,12.0,66,0.00,,,0.00,meteohub,2013-10-18 13:48:00,
2013-10-18 09:52:00,58.8,47.1,29.94,WNW,291,5.0,12.0,65,0.00,,,0.00,meteohub,2013-10-18 13:52:00,
2013-10-18 09:57:00,59.2,47.5,29.94,WNW,295,3.0,18.0,65,0.00,,,0.00,meteohub,2013-10-18 13:57:00,
2013-10-18 10:03:00,59.4,47.7,29.94,WNW,293,8.0,18.0,65,0.00,,,0.00,meteohub,2013-10-18 14:03:00,
2013-10-18 10:08:00,59.5,47.3,29.94,WNW,297,5.0,18.0,64,0.00,,,0.00,meteohub,2013-10-18 14:08:00,
2013-10-18 10:13:00,59.5,47.3,29.94,WNW,283,11.0,17.0,64,0.00,,,0.00,meteohub,2013-10-18 14:13:00,
2013-10-18 10:18:00,59.7,47.5,29.94,WNW,290,5.0,17.0,64,0.00,,,0.00,meteohub,2013-10-18 14:18:00,
2013-10-18 10:23:00,60.1,47.5,29.94,WNW,285,8.0,17.0,63,0.00,,,0.00,meteohub,2013-10-18 14:23:00,
2013-10-18 10:28:00,60.1,47.5,29.94,NW,304,9.0,17.0,63,0.00,,,0.00,meteohub,2013-10-18 14:28:00,
2013-10-18 10:33:00,60.3,47.7,29.94,WNW,295,5.0,17.0,63,0.00,,,0.00,meteohub,2013-10-18 14:33:00,
2013-10-18 10:38:00,60.4,47.3,29.94,WNW,293,10.0,15.0,62,0.00,,,0.00,meteohub,2013-10-18 14:38:00,
2013-10-18 10:43:00,61.0,47.5,29.94,WNW,295,3.0,15.0,61,0.00,,,0.00,meteohub,2013-10-18 14:43:00,
2013-10-18 10:48:00,61.5,48.0,29.94,West,279,7.0,13.0,61,0.00,,,0.00,meteohub,2013-10-18 14:48:00,
2013-10-18 10:53:00,61.5,47.5,29.94,WNW,299,3.0,13.0,60,0.00,,,0.00,meteohub,2013-10-18 14:53:00,
2013-10-18 10:58:00,61.3,47.3,29.94,NNE,19,3.0,18.0,60,0.00,,,0.00,meteohub,2013-10-18 14:58:00,
2013-10-18 11:03:00,61.5,47.1,29.94,NW,307,3.0,18.0,59,0.00,,,0.00,meteohub,2013-10-18 15:03:00,
2013-10-18 11:08:00,61.9,46.9,29.94,NW,325,3.0,18.0,58,0.00,,,0.00,meteohub,2013-10-18 15:08:00,
2013-10-18 11:13:00,62.1,47.1,29.94,WNW,300,6.0,13.0,58,0.00,,,0.00,meteohub,2013-10-18 15:13:00,
2013-10-18 11:18:00,62.2,46.8,29.95,West,269,5.0,13.0,57,0.00,,,0.00,meteohub,2013-10-18 15:18:00,
2013-10-18 11:23:00,62.6,47.1,29.94,NW,312,3.0,13.0,57,0.00,,,0.00,meteohub,2013-10-18 15:23:00,
2013-10-18 11:28:00,62.6,46.8,29.94,WNW,292,10.0,13.0,56,0.00,,,0.00,meteohub,2013-10-18 15:28:00,
2013-10-18 11:33:00,62.8,46.9,29.94,WNW,288,7.0,15.0,56,0.00,,,0.00,meteohub,2013-10-18 15:33:00,
2013-10-18 11:38:00,62.8,47.3,29.94,WNW,296,9.0,16.0,57,0.00,,,0.00,meteohub,2013-10-18 15:38:00,
2013-10-18 11:43:00,63.1,47.7,29.94,WNW,301,4.0,16.0,57,0.00,,,0.00,meteohub,2013-10-18 15:43:00,
2013-10-18 11:48:00,63.3,46.9,29.94,NW,307,10.0,16.0,55,0.00,,,0.00,meteohub,2013-10-18 15:48:00,
2013-10-18 11:53:00,63.3,47.3,29.94,WNW,296,8.0,17.0,56,0.00,,,0.00,meteohub,2013-10-18 15:53:00,
2013-10-18 11:58:00,63.5,47.5,29.94,NW,319,2.0,17.0,56,0.00,,,0.00,meteohub,2013-10-18 15:58:00,
2013-10-18 12:03:00,63.5,46.6,29.94,NW,308,8.0,17.0,54,0.00,,,0.00,meteohub,2013-10-18 16:03:00,
2013-10-18 12:08:00,63.9,47.8,29.94,WNW,283,8.0,18.0,56,0.00,,,0.00,meteohub,2013-10-18 16:08:00,
2013-10-18 12:13:00,64.2,47.3,29.94,West,269,11.0,18.0,54,0.00,,,0.00,meteohub,2013-10-18 16:13:00,
2013-10-18 12:18:00,64.2,46.8,29.94,WNW,291,9.0,18.0,53,0.00,,,0.00,meteohub,2013-10-18 16:18:00,
2013-10-18 12:23:00,64.2,46.2,29.94,West,274,9.0,16.0,52,0.00,,,0.00,meteohub,2013-10-18 16:23:00,
2013-10-18 12:28:00,64.4,46.4,29.94,West,277,4.0,16.0,52,0.00,,,0.00,meteohub,2013-10-18 16:28:00,
2013-10-18 12:33:00,64.4,46.4,29.94,WNW,303,3.0,16.0,52,0.00,,,0.00,meteohub,2013-10-18 16:33:00,
2013-10-18 12:38:00,64.6,46.6,29.94,WNW,293,8.0,18.0,52,0.00,,,0.00,meteohub,2013-10-18 16:38:00,
2013-10-18 12:43:00,64.8,47.3,29.94,NNW,345,6.0,18.0,53,0.00,,,0.00,meteohub,2013-10-18 16:43:00,
2013-10-18 12:48:00,65.1,46.6,29.94,WNW,292,8.0,18.0,51,0.00,,,0.00,meteohub,2013-10-18 16:48:00,
2013-10-18 12:53:00,65.7,46.6,29.93,North,354,6.0,16.0,50,0.00,,,0.00,meteohub,2013-10-18 16:53:00,
2013-10-18 12:58:00,65.3,46.2,29.93,NW,304,5.0,20.0,50,0.00,,,0.00,meteohub,2013-10-18 16:58:00,
2013-10-18 13:03:00,65.5,46.4,29.93,WNW,293,15.0,20.0,50,0.00,,,0.00,meteohub,2013-10-18 17:03:00,
2013-10-18 13:08:00,65.1,46.0,29.93,WNW,283,8.0,20.0,50,0.00,,,0.00,meteohub,2013-10-18 17:08:00,
2013-10-18 13:13:00,65.3,46.8,29.93,WNW,300,6.0,16.0,51,0.00,,,0.00,meteohub,2013-10-18 17:13:00,
2013-10-18 13:18:00,65.7,46.6,29.93,WNW,290,8.0,16.0,50,0.00,,,0.00,meteohub,2013-10-18 17:18:00,
2013-10-18 13:23:00,65.7,46.6,29.93,WNW,300,10.0,15.0,50,0.00,,,0.00,meteohub,2013-10-18 17:23:00,
2013-10-18 13:28:00,65.5,46.4,29.93,West,278,8.0,17.0,50,0.00,,,0.00,meteohub,2013-10-18 17:28:00,
2013-10-18 13:33:00,65.8,46.8,29.92,NW,319,3.0,17.0,50,0.00,,,0.00,meteohub,2013-10-18 17:33:00,
2013-10-18 13:35:00,65.7,47.1,29.92,WNW,298,5.0,17.0,51,0.00,,,0.00,meteohub,2013-10-18 17:35:00,
2013-10-18 13:40:00,66.2,46.9,29.92,WNW,285,5.0,17.0,50,0.00,,,0.00,meteohub,2013-10-18 17:40:00,
2013-10-18 13:45:00,66.4,46.0,29.92,NNW,341,3.0,15.0,48,0.00,,,0.00,meteohub,2013-10-18 17:45:00,
2013-10-18 13:50:00,66.2,46.4,29.92,WNW,291,4.0,18.0,49,0.00,,,0.00,meteohub,2013-10-18 17:50:00,
2013-10-18 13:55:00,66.2,45.9,29.92,WNW,300,9.0,18.0,48,0.00,,,0.00,meteohub,2013-10-18 17:55:00,
2013-10-18 14:00:00,66.2,45.9,29.92,NW,315,3.0,20.0,48,0.00,,,0.00,meteohub,2013-10-18 18:00:00,
2013-10-18 14:05:00,66.4,46.0,29.92,NNW,340,2.0,20.0,48,0.00,,,0.00,meteohub,2013-10-18 18:05:00,
2013-10-18 14:10:00,66.9,46.6,29.92,WNW,290,8.0,20.0,48,0.00,,,0.00,meteohub,2013-10-18 18:10:00,
2013-10-18 14:15:00,66.9,46.0,29.92,WNW,302,8.0,14.0,47,0.00,,,0.00,meteohub,2013-10-18 18:15:00,
2013-10-18 14:20:00,66.7,46.4,29.92,NW,309,3.0,14.0,48,0.00,,,0.00,meteohub,2013-10-18 18:20:00,
2013-10-18 14:25:00,66.7,46.4,29.91,NW,324,2.0,14.0,48,0.00,,,0.00,meteohub,2013-10-18 18:25:00,
2013-10-18 14:30:00,66.9,46.6,29.92,West,269,6.0,17.0,48,0.00,,,0.00,meteohub,2013-10-18 18:30:00,
2013-10-18 14:35:00,66.7,46.4,29.92,NNW,330,3.0,17.0,48,0.00,,,0.00,meteohub,2013-10-18 18:35:00,
2013-10-18 14:40:00,66.7,46.4,29.92,WNW,294,10.0,17.0,48,0.00,,,0.00,meteohub,2013-10-18 18:40:00,
2013-10-18 14:45:00,66.9,46.6,29.92,NW,307,13.0,15.0,48,0.00,,,0.00,meteohub,2013-10-18 18:45:00,
2013-10-18 14:50:00,66.9,46.6,29.92,West,281,3.0,15.0,48,0.00,,,0.00,meteohub,2013-10-18 18:50:00,
2013-10-18 14:55:00,67.5,47.1,29.92,WNW,296,8.0,13.0,48,0.00,,,0.00,meteohub,2013-10-18 18:55:00,
2013-10-18 15:00:00,67.3,46.4,29.92,West,277,9.0,13.0,47,0.00,,,0.00,meteohub,2013-10-18 19:00:00,
2013-10-18 15:05:00,66.7,45.9,29.92,WNW,291,3.0,16.0,47,0.00,,,0.00,meteohub,2013-10-18 19:05:00,
2013-10-18 15:10:00,66.7,45.9,29.92,WNW,285,6.0,16.0,47,0.00,,,0.00,meteohub,2013-10-18 19:10:00,
2013-10-18 15:15:00,66.7,45.9,29.92,WNW,295,13.0,16.0,47,0.00,,,0.00,meteohub,2013-10-18 19:15:00,
2013-10-18 15:20:00,66.6,45.7,29.92,WNW,303,12.0,16.0,47,0.00,,,0.00,meteohub,2013-10-18 19:20:00,
2013-10-18 15:25:00,66.6,45.7,29.92,WNW,294,6.0,19.0,47,0.00,,,0.00,meteohub,2013-10-18 19:25:00,
2013-10-18 15:30:00,66.4,46.0,29.92,West,281,7.0,19.0,48,0.00,,,0.00,meteohub,2013-10-18 19:30:00,
2013-10-18 15:35:00,66.7,45.9,29.92,WNW,294,8.0,19.0,47,0.00,,,0.00,meteohub,2013-10-18 19:35:00,
2013-10-18 15:40:00,66.6,45.7,29.92,NW,320,7.0,12.0,47,0.00,,,0.00,meteohub,2013-10-18 19:40:00,
2013-10-18 15:45:00,66.4,46.0,29.92,WNW,285,5.0,13.0,48,0.00,,,0.00,meteohub,2013-10-18 19:45:00,
2013-10-18 15:50:00,66.4,46.6,29.92,WNW,290,7.0,16.0,49,0.00,,,0.00,meteohub,2013-10-18 19:50:00,
2013-10-18 15:55:00,66.6,46.2,29.92,WNW,291,3.0,16.0,48,0.00,,,0.00,meteohub,2013-10-18 19:55:00,
2013-10-18 16:00:00,66.6,46.8,29.92,WNW,287,6.0,11.0,49,0.00,,,0.00,meteohub,2013-10-18 20:00:00,
2013-10-18 16:05:00,66.6,46.2,29.92,NNW,345,4.0,12.0,48,0.00,,,0.00,meteohub,2013-10-18 20:05:00,
2013-10-18 16:10:00,66.4,45.5,29.92,NW,307,11.0,12.0,47,0.00,,,0.00,meteohub,2013-10-18 20:10:00,
2013-10-18 16:15:00,66.2,45.3,29.92,West,273,5.0,12.0,47,0.00,,,0.00,meteohub,2013-10-18 20:15:00,
2013-10-18 16:20:00,66.0,45.1,29.92,WSW,257,13.0,13.0,47,0.00,,,0.00,meteohub,2013-10-18 20:20:00,
2013-10-18 16:25:00,66.0,45.1,29.92,WNW,288,7.0,14.0,47,0.00,,,0.00,meteohub,2013-10-18 20:25:00,
2013-10-18 16:30:00,66.0,45.7,29.92,West,270,6.0,14.0,48,0.00,,,0.00,meteohub,2013-10-18 20:30:00,
2013-10-18 16:35:00,65.8,45.7,29.92,WNW,294,5.0,14.0,48,0.00,,,0.00,meteohub,2013-10-18 20:35:00,
2013-10-18 16:40:00,65.8,45.0,29.92,NW,319,4.0,15.0,47,0.00,,,0.00,meteohub,2013-10-18 20:40:00,
2013-10-18 16:45:00,65.8,45.7,29.92,WNW,302,6.0,16.0,48,0.00,,,0.00,meteohub,2013-10-18 20:45:00,
2013-10-18 16:50:00,65.7,45.5,29.92,West,271,5.0,17.0,48,0.00,,,0.00,meteohub,2013-10-18 20:50:00,
2013-10-18 16:55:00,65.8,45.0,29.93,NNW,328,2.0,17.0,47,0.00,,,0.00,meteohub,2013-10-18 20:55:00,
2013-10-18 17:00:00,65.8,45.0,29.93,WNW,297,6.0,17.0,47,0.00,,,0.00,meteohub,2013-10-18 21:00:00,
2013-10-18 17:05:00,65.7,44.2,29.93,NW,309,8.0,14.0,46,0.00,,,0.00,meteohub,2013-10-18 21:05:00,
2013-10-18 17:10:00,65.5,44.8,29.93,NW,311,4.0,14.0,47,0.00,,,0.00,meteohub,2013-10-18 21:10:00,
2013-10-18 17:15:00,65.5,44.8,29.93,WNW,295,4.0,14.0,47,0.00,,,0.00,meteohub,2013-10-18 21:15:00,
2013-10-18 17:20:00,65.7,45.5,29.94,WNW,295,6.0,14.0,48,0.00,,,0.00,meteohub,2013-10-18 21:20:00,
2013-10-18 17:25:00,65.5,44.8,29.94,WNW,300,4.0,12.0,47,0.00,,,0.00,meteohub,2013-10-18 21:25:00,
2013-10-18 17:30:00,65.5,45.3,29.94,NW,317,2.0,13.0,48,0.00,,,0.00,meteohub,2013-10-18 21:30:00,
2013-10-18 17:35:00,65.3,45.1,29.94,WNW,288,3.0,13.0,48,0.00,,,0.00,meteohub,2013-10-18 21:35:00,
2013-10-18 17:40:00,65.1,45.5,29.94,West,278,6.0,13.0,49,0.00,,,0.00,meteohub,2013-10-18 21:40:00,
2013-10-18 17:45:00,64.8,45.1,29.95,WNW,288,5.0,12.0,49,0.00,,,0.00,meteohub,2013-10-18 21:45:00,
2013-10-18 17:50:00,64.2,45.1,29.95,WNW,293,4.0,12.0,50,0.00,,,0.00,meteohub,2013-10-18 21:50:00,
2013-10-18 17:55:00,64.0,45.0,29.95,NNW,328,3.0,11.0,50,0.00,,,0.00,meteohub,2013-10-18 21:55:00,
2013-10-18 18:00:00,63.9,45.3,29.95,WNW,301,5.0,9.0,51,0.00,,,0.00,meteohub,2013-10-18 22:00:00,
2013-10-18 18:05:00,63.7,45.1,29.95,NW,304,2.0,9.0,51,0.00,,,0.00,meteohub,2013-10-18 22:05:00,
2013-10-18 18:10:00,63.3,45.0,29.96,WNW,291,4.0,9.0,51,0.00,,,0.00,meteohub,2013-10-18 22:10:00,
2013-10-18 18:15:00,63.1,45.1,29.96,WNW,295,4.0,9.0,52,0.00,,,0.00,meteohub,2013-10-18 22:15:00,
2013-10-18 18:20:00,63.0,45.1,29.96,WNW,299,3.0,8.0,52,0.00,,,0.00,meteohub,2013-10-18 22:20:00,
2013-10-18 18:25:00,62.8,45.0,29.96,WNW,284,5.0,8.0,52,0.00,,,0.00,meteohub,2013-10-18 22:25:00,
2013-10-18 18:30:00,62.6,45.1,29.96,WNW,301,3.0,11.0,53,0.00,,,0.00,meteohub,2013-10-18 22:30:00,
2013-10-18 18:35:00,62.4,45.1,29.97,WNW,288,5.0,11.0,53,0.00,,,0.00,meteohub,2013-10-18 22:35:00,
2013-10-18 18:40:00,62.2,45.0,29.97,WNW,292,2.0,11.0,53,0.00,,,0.00,meteohub,2013-10-18 22:40:00,
2013-10-18 18:45:00,62.1,45.1,29.97,WNW,292,2.0,6.0,54,0.00,,,0.00,meteohub,2013-10-18 22:45:00,
2013-10-18 18:50:00,61.9,45.1,29.98,NW,304,2.0,6.0,54,0.00,,,0.00,meteohub,2013-10-18 22:50:00,
2013-10-18 18:55:00,61.5,45.1,29.97,WNW,294,2.0,6.0,55,0.00,,,0.00,meteohub,2013-10-18 22:55:00,
2013-10-18 19:01:00,61.2,45.3,29.98,WNW,302,3.0,5.0,56,0.00,,,0.00,meteohub,2013-10-18 23:01:00,
2013-10-18 19:06:00,61.0,45.7,29.98,WNW,294,0.0,5.0,57,0.00,,,0.00,meteohub,2013-10-18 23:06:00,
2013-10-18 19:11:00,60.8,45.5,29.98,West,281,2.0,5.0,57,0.00,,,0.00,meteohub,2013-10-18 23:11:00,
2013-10-18 19:16:00,60.4,45.7,29.98,WNW,302,1.0,4.0,58,0.00,,,0.00,meteohub,2013-10-18 23:16:00,
2013-10-18 19:21:00,60.3,45.5,29.99,NNW,328,1.0,5.0,58,0.00,,,0.00,meteohub,2013-10-18 23:21:00,
2013-10-18 19:26:00,60.1,45.7,29.99,NW,304,1.0,5.0,59,0.00,,,0.00,meteohub,2013-10-18 23:26:00,
2013-10-18 19:31:00,59.9,45.5,29.99,WNW,288,2.0,5.0,59,0.00,,,0.00,meteohub,2013-10-18 23:31:00,
2013-10-18 19:36:00,59.7,45.3,29.99,WNW,295,2.0,5.0,59,0.00,,,0.00,meteohub,2013-10-18 23:36:00,
2013-10-18 19:41:00,59.5,45.1,29.99,WNW,287,4.0,5.0,59,0.00,,,0.00,meteohub,2013-10-18 23:41:00,
2013-10-18 19:46:00,59.5,45.1,29.99,WNW,291,2.0,5.0,59,0.00,,,0.00,meteohub,2013-10-18 23:46:00,
2013-10-18 19:51:00,59.4,45.5,29.99,WNW,287,2.0,5.0,60,0.00,,,0.00,meteohub,2013-10-18 23:51:00,
2013-10-18 19:56:00,59.2,45.3,29.99,West,279,1.0,5.0,60,0.00,,,0.00,meteohub,2013-10-18 23:56:00,
2013-10-18 20:01:00,59.0,45.5,29.99,WNW,300,1.0,5.0,61,0.00,,,0.00,meteohub,2013-10-19 00:01:00,
2013-10-18 20:06:00,58.8,45.3,29.99,WNW,300,2.0,5.0,61,0.00,,,0.00,meteohub,2013-10-19 00:06:00,
2013-10-18 20:11:00,58.6,45.3,30.00,WNW,288,2.0,5.0,61,0.00,,,0.00,meteohub,2013-10-19 00:11:00,
2013-10-18 20:16:00,58.5,45.5,30.00,WNW,283,1.0,5.0,62,0.00,,,0.00,meteohub,2013-10-19 00:16:00,
2013-10-18 20:21:00,58.3,45.3,30.00,WNW,283,3.0,5.0,62,0.00,,,0.00,meteohub,2013-10-19 00:21:00,
2013-10-18 20:26:00,58.1,45.1,30.00,WNW,293,2.0,5.0,62,0.00,,,0.00,meteohub,2013-10-19 00:26:00,
2013-10-18 20:31:00,57.9,45.3,30.00,NW,311,1.0,4.0,63,0.00,,,0.00,meteohub,2013-10-19 00:31:00,
2013-10-18 20:36:00,57.7,45.3,30.01,WNW,291,3.0,7.0,63,0.00,,,0.00,meteohub,2013-10-19 00:36:00,
2013-10-18 20:41:00,57.7,45.3,30.01,WNW,290,3.0,7.0,63,0.00,,,0.00,meteohub,2013-10-19 00:41:00,
2013-10-18 20:46:00,57.6,45.1,30.01,WNW,300,3.0,7.0,63,0.00,,,0.00,meteohub,2013-10-19 00:46:00,
2013-10-18 20:51:00,57.4,45.0,30.01,WNW,300,1.0,7.0,63,0.00,,,0.00,meteohub,2013-10-19 00:51:00,
2013-10-18 20:56:00,57.2,45.1,30.01,NW,308,2.0,5.0,64,0.00,,,0.00,meteohub,2013-10-19 00:56:00,
2013-10-18 21:01:00,57.0,45.0,30.01,WNW,288,1.0,5.0,64,0.00,,,0.00,meteohub,2013-10-19 01:01:00,
2013-10-18 21:06:00,56.8,45.1,30.01,WNW,284,1.0,5.0,65,0.00,,,0.00,meteohub,2013-10-19 01:06:00,
2013-10-18 21:11:00,56.7,45.0,30.01,WNW,294,1.0,4.0,65,0.00,,,0.00,meteohub,2013-10-19 01:11:00,
2013-10-18 21:16:00,56.7,45.0,30.01,WNW,294,2.0,4.0,65,0.00,,,0.00,meteohub,2013-10-19 01:16:00,
2013-10-18 21:21:00,56.5,45.3,30.02,WNW,302,1.0,4.0,66,0.00,,,0.00,meteohub,2013-10-19 01:21:00,
2013-10-18 21:26:00,56.3,45.1,30.02,WNW,287,2.0,4.0,66,0.00,,,0.00,meteohub,2013-10-19 01:26:00,
2013-10-18 21:31:00,56.1,45.0,30.02,West,281,2.0,4.0,66,0.00,,,0.00,meteohub,2013-10-19 01:31:00,
2013-10-18 21:36:00,55.9,44.8,30.02,West,281,1.0,4.0,66,0.00,,,0.00,meteohub,2013-10-19 01:36:00,
2013-10-18 21:41:00,55.8,45.0,30.02,WNW,284,1.0,4.0,67,0.00,,,0.00,meteohub,2013-10-19 01:41:00,
2013-10-18 21:46:00,55.6,44.8,30.02,WNW,301,1.0,4.0,67,0.00,,,0.00,meteohub,2013-10-19 01:46:00,
2013-10-18 21:51:00,55.6,44.8,30.02,WNW,284,1.0,5.0,67,0.00,,,0.00,meteohub,2013-10-19 01:51:00,
2013-10-18 21:56:00,55.2,44.4,30.02,WNW,285,1.0,5.0,67,0.00,,,0.00,meteohub,2013-10-19 01:56:00,
2013-10-18 22:01:00,55.2,44.8,30.03,WNW,287,1.0,5.0,68,0.00,,,0.00,meteohub,2013-10-19 02:01:00,
2013-10-18 22:06:00,55.0,44.6,30.03,WNW,294,2.0,5.0,68,0.00,,,0.00,meteohub,2013-10-19 02:06:00,
2013-10-18 22:11:00,55.0,44.6,30.03,WNW,295,2.0,5.0,68,0.00,,,0.00,meteohub,2013-10-19 02:11:00,
2013-10-18 22:16:00,54.9,44.4,30.03,WNW,298,1.0,5.0,68,0.00,,,0.00,meteohub,2013-10-19 02:16:00,
2013-10-18 22:21:00,54.7,44.2,30.03,WNW,292,0.0,3.0,68,0.00,,,0.00,meteohub,2013-10-19 02:21:00,
2013-10-18 22:26:00,54.7,44.8,30.03,WNW,288,1.0,3.0,69,0.00,,,0.00,meteohub,2013-10-19 02:26:00,
2013-10-18 22:31:00,54.5,44.6,30.03,WNW,300,0.0,3.0,69,0.00,,,0.00,meteohub,2013-10-19 02:31:00,
2013-10-18 22:36:00,54.3,44.4,30.03,West,281,0.0,3.0,69,0.00,,,0.00,meteohub,2013-10-19 02:36:00,
2013-10-18 22:41:00,54.1,44.2,30.03,WNW,285,1.0,3.0,69,0.00,,,0.00,meteohub,2013-10-19 02:41:00,
2013-10-18 22:46:00,54.0,44.4,30.03,WNW,285,0.0,3.0,70,0.00,,,0.00,meteohub,2013-10-19 02:46:00,
2013-10-18 22:51:00,53.8,44.2,30.03,WNW,298,1.0,2.0,70,0.00,,,0.00,meteohub,2013-10-19 02:51:00,
2013-10-18 22:56:00,53.8,44.2,30.03,WNW,300,0.0,3.0,70,0.00,,,0.00,meteohub,2013-10-19 02:56:00,
2013-10-18 23:01:00,53.4,44.2,30.03,WNW,284,1.0,3.0,71,0.00,,,0.00,meteohub,2013-10-19 03:01:00,
2013-10-18 23:06:00,53.2,44.1,30.03,West,278,1.0,3.0,71,0.00,,,0.00,meteohub,2013-10-19 03:06:00,
2013-10-18 23:11:00,53.1,43.9,30.04,West,278,0.0,2.0,71,0.00,,,0.00,meteohub,2013-10-19 03:11:00,
2013-10-18 23:16:00,52.9,44.1,30.04,WNW,290,2.0,2.0,72,0.00,,,0.00,meteohub,2013-10-19 03:16:00,
2013-10-18 23:21:00,52.9,44.1,30.04,WNW,294,0.0,2.0,72,0.00,,,0.00,meteohub,2013-10-19 03:21:00,
2013-10-18 23:26:00,52.9,44.1,30.04,WNW,283,0.0,2.0,72,0.00,,,0.00,meteohub,2013-10-19 03:26:00,
2013-10-18 23:31:00,52.5,43.7,30.04,WNW,284,0.0,2.0,72,0.00,,,0.00,meteohub,2013-10-19 03:31:00,
2013-10-18 23:36:00,52.5,44.1,30.04,WNW,285,1.0,3.0,73,0.00,,,0.00,meteohub,2013-10-19 03:36:00,
2013-10-18 23:41:00,52.5,44.1,30.04,WNW,287,0.0,3.0,73,0.00,,,0.00,meteohub,2013-10-19 03:41:00,
2013-10-18 23:46:00,52.3,43.9,30.04,WNW,287,0.0,3.0,73,0.00,,,0.00,meteohub,2013-10-19 03:46:00,
2013-10-18 23:51:00,52.0,43.9,30.04,WNW,288,0.0,2.0,74,0.00,,,0.00,meteohub,2013-10-19 03:51:00,
2013-10-18 23:56:00,51.8,43.7,30.04,WNW,288,0.0,1.0,74,0.00,,,0.00,meteohub,2013-10-19 03:56:00,